Location: Salamanca
(40.9670°N, 5.6500°W)
Time: 13:50:39
(UTC+02:00)

ISS - Visible Passes

Search period start: 22 October 2019 00:00
Search period end: 31 October 2019 23:00
Orbit: 411 x 421 km, 51.6° (Epoch: 22 October)

Date Brightness Start Highest point End Pass type
(mag) Time Alt. Az. Time Alt. Az. Time Alt. Az.
23 Oct -0.8 07:34:31 10° S 07:36:37 16° SE 07:38:44 10° E visible
25 Oct -2.7 07:32:41 10° SSW 07:35:54 43° SE 07:39:07 10° ENE visible
26 Oct -1.8 06:46:45 23° SSE 06:47:25 25° SE 06:50:13 10° ENE visible
27 Oct -0.2 05:00:47 10° E 05:00:47 10° E 05:00:52 10° E visible
27 Oct -3.8 06:33:42 27° WSW 06:35:20 65° NW 06:38:41 10° NE visible
28 Oct -2.8 05:47:33 46° ENE 05:47:33 46° ENE 05:50:04 10° ENE visible
29 Oct -0.2 05:01:15 10° ENE 05:01:15 10° ENE 05:01:19 10° ENE visible
29 Oct -2.7 06:34:10 26° NW 06:34:56 29° NNW 06:37:56 10° NE visible
30 Oct -1.8 05:47:44 25° NNE 05:47:44 25° NNE 05:49:25 10° NE visible
30 Oct -1.6 07:21:28 10° NW 07:23:34 15° N 07:25:39 10° NNE visible
31 Oct -1.9 06:34:08 18° NNW 06:34:39 18° NNW 06:37:05 10° NNE visible
